Regional Weather Roundup
Issued by NWS

Home | Current Version | Previous Version | Text Only | Print | Product List | Glossary Off
Versions: 1 2 3 4 5 6 7 8 9 10 11 12 13 14 15 16 17 18 19 20 21 22 23 24 25 26 27 28 29 30 31 32 33 34 35 36 37 38 39 40 41 42 43 44 45 46 47 48 49 50

000
ASUS43 KMPX 061410
RWRMN
WEATHER ROUNDUP FOR MINNESOTA
NATIONAL WEATHER SERVICE TWIN CITIES/CHANHASSEN MN
800 AM CST FRI MAR 06 2015


NOTE: "FAIR" INDICATES FEW OR NO CLOUDS BELOW 12,000 FEET WITH NO
SIGNIFICANT WEATHER AND/OR OBSTRUCTIONS TO VISIBILITY. N/A MEANS
CURRENT SKY AND/OR WEATHER CONDITIONS ARE NOT AVAILABLE.

MNZ060>063-068>070-061500-
   Twin Cities Metro

CITY           SKY/WX    TMP DP  RH WIND       PRES   REMARKS
TWIN CITIES    MOSUNNY   16   6  65 S6        30.07F WCI   7
ST PAUL        SUNNY     14   5  67 S8        30.10F WCI   3
CRYSTAL        MOSUNNY   17   7  64 S12       30.05F WCI   4
BLAINE         PTSUNNY   18   9  68 S10       30.04F WCI   6
LAKEVILLE      SUNNY     12   5  73 S5        30.07F WCI   4
EDEN PRAIRIE   PTSUNNY   15   6  67 SW8       30.06F WCI   4
SOUTH ST PAUL  SUNNY     14   5  66 S6        30.08F WCI   5
LAKE ELMO      FAIR      14   5  67 S12       30.08F WCI   0
$$
MNZ001>005-007-008-013>017-022>024-027-028-061500-
   Northwest Minnesota

CITY           SKY/WX    TMP DP  RH WIND       PRES   REMARKS
BEMIDJI        SUNNY     10   6  81 W7        29.96R WCI  -1
HALLOCK        PTCLDY     5   1  85 W2        30.01R
ROSEAU         PTCLDY    12   5  73 W12       29.97R WCI  -2
WARROAD        PTCLDY     9   3  78 W8        29.96R WCI  -4
THIEF RVR FALL PTCLDY    10   9  92 CALM      30.00S
CROOKSTON      PTCLDY    10   7  85 CALM      30.04S
FOSSTON        PTCLDY     3   0  85 CALM      30.00S
DETROIT LAKES  MOSUNNY   16  10  79 NW9       30.01R WCI   4
MOORHEAD       CLEAR     16  12  86 NW6       30.06R WCI   7
PARK RAPIDS    FAIR      10   4  76 NW8       29.96R WCI  -2
MAHNOMEN       FAIR      10   6  85 W3        30.01R
$$
MNZ006-009>011-018-025>026-061500-
   North Central Minnesota

CITY           SKY/WX    TMP DP  RH WIND       PRES   REMARKS
BAUDETTE       SUNNY     11   4  73 W6        29.92R WCI   1
FLAG ISLAND    CLEAR     10   5  79 W10       29.92R WCI  -3
INTL FALLS     SUNNY     12   5  73 W10       29.90R WCI  -1
WASKISH        SUNNY     10   7  85 SW8       29.95R WCI  -1
BIG FORK       SUNNY     14   7  73 W6        29.93R WCI   5
LONGVILLE      FAIR      12   7  79 CALM      29.97R
GRAND RAPIDS   SUNNY     14   7  73 W7        29.93R WCI   4
CRANE LAKE     SUNNY     10   3  72 SW3       29.92R
ORR            SUNNY     10   1  67 CALM      29.88R
COOK           SUNNY     12   3  67 SW10      29.90S WCI  -1
WALKER         FAIR      14   6  73 W8        29.96R WCI   2
$$
MNZ012-019>021-037-061500-
   Northeast Minnesota

CITY           SKY/WX    TMP DP  RH WIND       PRES   REMARKS
DULUTH         MOSUNNY   11   2  67 W14       29.93S WCI  -5
ELY            SUNNY     10   3  72 SW8       29.89S WCI  -1
HIBBING        SUNNY     12   3  67 SW6       29.92S WCI   3
EVELETH        SUNNY     12   5  73 SW5       29.93S WCI   4
DULUTH HARBOR  CLOUDY    16   5  62 SW9       30.02R WCI   4
TWO HARBORS    SUNNY     12   5  73 SW7       29.93S WCI   2
SILVER BAY     MOSUNNY   10   3  72 SW5       29.92S WCI   2
GRAND MARAIS     N/A     18   7  62 W8        29.94S WCI   8
G MARAIS ARPRT PTSUNNY    9  -2  61 SW5       29.83F WCI   0
$$
MNZ029>031-032-039>041-046>048-054>057-064-061500-
   West Central Minnesota

CITY           SKY/WX    TMP DP  RH WIND       PRES   REMARKS
FERGUS FALLS   SUNNY      9   3  78 NW7       30.07R WCI  -3
WHEATON        SUNNY     18  10  73 W8        30.08R WCI   7
MORRIS         SUNNY     16   9  73 NW10      30.03R WCI   3
ALEXANDRIA     SUNNY     14   7  73 W8        30.00R WCI   3
ELBOW LAKE     FAIR      12   7  81 NW8       30.03R WCI   0
WADENA         SUNNY     12   7  79 W7        29.99R WCI   2
GLENWOOD       SUNNY     14   9  79 W9        30.01S WCI   2
APPLETON       SUNNY     14   9  79 W7        30.05S WCI   4
BENSON         SUNNY     10   7  85 CALM      30.04R
ORTONVILLE     SUNNY     21  10  63 W8        30.05R WCI  12
MADISON        SUNNY     21  12  68 NW5       30.06S WCI  15
WILLMAR        FAIR      16  10  79 SW6       30.04F WCI   7
$$
MNZ033>034-036-042>043-049>051-058-059-061500-
   Central Minnesota

CITY           SKY/WX    TMP DP  RH WIND       PRES   REMARKS
ST CLOUD       SUNNY     13   6  74 S6        30.02S WCI   4
SAUK CENTRE    FAIR      13   7  76 W5        30.01R WCI   6
PAYNESVILLE    SUNNY     12   7  79 S5        30.02S WCI   4
AITKIN         SUNNY     18   7  62 SW6       29.97R WCI   9
PINE RIVER     SUNNY      7   3  85 CALM      30.01R
BRAINERD       SUNNY      8   3  80 SW6       29.99R WCI  -2
STAPLES        SUNNY     10   3  72 W6        29.99R WCI   1
LONG PRAIRIE   FAIR      14   9  79 SW6       30.00R WCI   5
LITTLE FALLS   SUNNY     14   7  73 CALM      30.01S
LITCHFIELD     SUNNY     16  10  79 CALM      30.04S
BUFFALO        MOSUNNY   15   7  72 S6        30.05S WCI   6
MAPLE LAKE     SUNNY     15   9  76 S5        30.04S WCI   7
$$
MNZ037-044-045-052-053-061500-
   East Central Minnesota

CITY           SKY/WX    TMP DP  RH WIND       PRES   REMARKS
PRINCETON      PTSUNNY   16   7  67 SW5       30.02S WCI   9
MORA           MOSUNNY   14   5  67 SW5       30.03R WCI   6
CAMBRIDGE      CLOUDY    18   7  62 S8        30.01S WCI   7
RUSH CITY      CLOUDY    13   5  68 S7        30.03S WCI   3
MOOSE LAKE     MOSUNNY   12   3  67 SW8       29.99R WCI   1
HINCKLEY       FAIR      14   5  67 S6        30.02R WCI   5
CLOQUET        MOSUNNY   10   1  67 SW7       29.96S WCI   0
MCGREGOR       SUNNY     14   9  79 SW7       29.98S WCI   4
$$
MNZ071>073-080-081-089-090-097-098-061500-
   Southwest Minnesota

CITY           SKY/WX    TMP DP  RH WIND       PRES   REMARKS
MONTEVIDEO     SUNNY     21  16  79 W5        30.06S WCI  15
GRANITE FALLS  SUNNY     20  13  75 W5        30.08R WCI  13
CANBY          SUNNY     29  15  56 W12       30.05R WCI  20
MARSHALL       SUNNY     27  12  54 W14       30.06R WCI  15
REDWOOD FALLS  SUNNY     20  11  68 W6        30.06R WCI  12
OLIVIA         SUNNY     18  12  79 SW7       30.04S WCI   8
PIPESTONE      SUNNY     14   9  79 SW3       30.07S
WINDOM         SUNNY     21  12  68 SW9       30.07S WCI  11
WORTHINGTON    MOSUNNY   19   9  63 SW16      30.09S WCI   5
JACKSON        SUNNY     21  10  63 SW14      30.08R WCI   8
TRACY          SUNNY     23  13  65 SW12G20   30.05S WCI  12
SLAYTON        SUNNY     21  10  62 W10G16    30.06S WCI  10
$$
MNZ065>067-074>077-082>085-091>093-061500-
   South Central Minnesota

CITY           SKY/WX    TMP DP  RH WIND       PRES   REMARKS
MANKATO        PTSUNNY   16  -8  35 S9        30.08S WCI   4
NEW ULM        SUNNY     16   9  73 S6        30.06S WCI   7
ST JAMES       SUNNY     23  14  68 SW9       30.08S WCI  13
FAIRMONT       SUNNY     18   9  68 S7        30.07F WCI   8
GLENCOE        SUNNY     16  10  79 S8        30.05S WCI   5
FARIBAULT      SUNNY     10   3  72 S7        30.09S WCI   0
OWATONNA       SUNNY     10   3  72 S10       30.09S WCI  -3
WASECA         SUNNY     14   7  73 S10       30.11S WCI   1
ALBERT LEA     SUNNY     14   7  73 S7        30.10F WCI   4
$$
MNZ078>079-086>088-094>096-061500-
   Southeast Minnesota

CITY           SKY/WX    TMP DP  RH WIND       PRES   REMARKS
ROCHESTER      SUNNY     11   3  70 S18       30.10F WCI  -7
RED WING       CLOUDY    16   3  57 S3        30.11F
STANTON        SUNNY     14   5  67 S8        30.08S WCI   3
DODGE CENTER   MOSUNNY   12   7  79 SW15      30.08S WCI  -4
WINONA         SUNNY     16   5  62 S5        30.18F WCI   9
AUSTIN         SUNNY      9   3  78 S12       30.12S WCI  -6
PRESTON        SUNNY     10   3  74 S22       30.12F WCI  -9
$$
ABBREVIATIONS USED IN REMARKS
   TC - TEMPERATURES IN CELSIUS
  WCI - WIND CHILL INDEX
   HX - HEAT INDEX
  VSB - VISIBILITY
$$



USA.gov is the U.S. government's official web portal to all federal, state and local government web resources and services.